This is the latest recevied weather packets stored in our database for station/object KB0RPJ. If no packets are shown the sender has not sent any weather packets the latest 10 day(s).
| Time | Temp. | Humidity | Pressure | Rain* | Wind** | Luminosity | Snow |
|---|---|---|---|---|---|---|---|
| 1777478105 | 11.67° C | 67% | 1020.2 hPa | 0 mm | - | 291 W/m² | - |
| 1777477805 | 11.11° C | 68% | 1020.2 hPa | 0 mm | - | 503 W/m² | - |
| 1777477505 | 11.11° C | 66% | 1020.3 hPa | 0 mm | - | 786 W/m² | - |
| 1777477205 | 11.11° C | 67% | 1020.3 hPa | 0 mm | - | 373 W/m² | - |
| 1777476904 | 11.11° C | 68% | 1020.3 hPa | 0 mm | - | 188 W/m² | - |
| 1777476620 | 11.11° C | 70% | 1020.3 hPa | 0 mm | - | 193 W/m² | - |
| 1777476305 | 10.56° C | 69% | 1020.3 hPa | 0 mm | - | 707 W/m² | - |
| 1777476005 | 10.56° C | 70% | 1020.5 hPa | 0 mm | - | 140 W/m² | - |
| 1777475704 | 10.56° C | 70% | 1020.5 hPa | 0 mm | - | 549 W/m² | - |
| 1777475405 | 10.56° C | 69% | 1020.5 hPa | 0 mm | - | 226 W/m² | - |
| 1777475117 | 10.56° C | 71% | 1020.5 hPa | 0 mm | - | 298 W/m² | - |
| 1777474805 | 10.56° C | 71% | 1020.4 hPa | 0 mm | - | 260 W/m² | - |
| 1777474506 | 10.56° C | 71% | 1020.3 hPa | 0 mm | - | 233 W/m² | - |
| 1777474207 | 10.56° C | 72% | 1020.4 hPa | 0 mm | - | 294 W/m² | - |
| 1777473904 | 10.56° C | 71% | 1020.3 hPa | 0 mm | - | 228 W/m² | - |
| 1777473605 | 10° C | 72% | 1020.3 hPa | 0 mm | - | 187 W/m² | - |
| 1777473305 | 10° C | 71% | 1020.3 hPa | 0 mm | - | 150 W/m² | - |
| 1777473005 | 10° C | 73% | 1020.2 hPa | 0 mm | - | 183 W/m² | - |
| 1777472705 | 10° C | 73% | 1020.2 hPa | 0 mm | - | 222 W/m² | - |
| 1777472405 | 10° C | 75% | 1020.1 hPa | 0 mm | - | 154 W/m² | - |
| 1777472104 | 10° C | 74% | 1020.1 hPa | 0 mm | - | 265 W/m² | - |
| 1777471805 | 9.44° C | 74% | 1020.1 hPa | 0 mm | - | 173 W/m² | - |
| 1777471504 | 9.44° C | 75% | 1020.3 hPa | 0 mm | - | 103 W/m² | - |
| 1777471205 | 9.44° C | 76% | 1020.3 hPa | 0 mm | - | 104 W/m² | - |
| 1777470904 | 9.44° C | 75% | 1020.3 hPa | 0 mm | - | 78 W/m² | - |
* Rain latest hour (hover to see other rain measurements)
** Current wind speed in m/s (hover to see current wind gust speed)